Location: Unspecified
(0.0000°N, 0.0000°E)
Time: 10:39:53
(UTC+02:00)

H-2A R/B - Visible Passes

Search period start: 23 October 2014 00:00
Search period end: 01 November 2014 23:00
Orbit: 265 x 33597 km, 28.0° (Epoch: 19 October)

Date Brightness Start Highest point End Pass type
(mag) Time Alt. Az. Time Alt. Az. Time Alt. Az.
24 Oct 4.5 04:52:39 44° SSW 04:56:58 63° SE 13:52:55 10° E visible
26 Oct 5.1 05:03:52 20° WSW 05:15:24 86° NNW 14:15:02 10° E visible
27 Oct 5.0 11:22:18 10° WNW 19:55:36 26° SW 16:42:10 10° WNW visible
28 Oct 5.8 06:17:03 10° WSW 15:00:16 71° NNE 15:32:16 10° ESE visible
29 Oct 5.7 01:55:18 21° ESE 01:55:18 21° ESE 02:10:57 10° E visible
29 Oct 9.2 06:32:55 10° ENE 09:00:32 18° ENE 10:15:26 10° ENE visible
31 Oct 4.7 03:06:08 55° SSE 03:06:51 56° SE 11:59:28 10° E visible
